This is the latest recevied weather packets stored in our database for station/object OK2ZAW-23. If no packets are shown the sender has not sent any weather packets the latest 10 day(s).
| Time | Temp. | Humidity | Pressure | Rain* | Wind** | Luminosity | Snow |
|---|---|---|---|---|---|---|---|
| 1777276503 | 10° C | 45% | 1020.5 hPa | - | - | 335 W/m² | - |
| 1777275563 | 9.44° C | 48% | 1020.6 hPa | - | - | 335 W/m² | - |
| 1777273997 | 8.33° C | 51% | 1020.7 hPa | - | - | 335 W/m² | - |
| 1777273371 | 7.78° C | 47% | 1020.7 hPa | - | - | 335 W/m² | - |
| 1777272432 | 7.22° C | 56% | 1020.9 hPa | - | - | 335 W/m² | - |
| 1777271807 | 6.67° C | 65% | 1021 hPa | - | - | 335 W/m² | - |
| 1777270867 | 5.56° C | 75% | 1020.9 hPa | - | - | 335 W/m² | - |
| 1777270554 | 5° C | 75% | 1020.9 hPa | - | - | 335 W/m² | - |
| 1777270241 | 5° C | 76% | 1020.9 hPa | - | - | 335 W/m² | - |
| 1777269929 | 4.44° C | 77% | 1020.9 hPa | - | - | 335 W/m² | - |
| 1777269303 | 3.89° C | 77% | 1020.9 hPa | - | - | 335 W/m² | - |
| 1777268990 | 3.33° C | 77% | 1020.9 hPa | - | - | 335 W/m² | - |
| 1777268677 | 3.33° C | 78% | 1020.8 hPa | - | - | 335 W/m² | - |
| 1777268052 | 2.78° C | 79% | 1020.9 hPa | - | - | 335 W/m² | - |
| 1777267427 | 2.22° C | 80% | 1020.8 hPa | - | - | 335 W/m² | - |
| 1777267113 | 2.22° C | 81% | 1020.8 hPa | - | - | 335 W/m² | - |
| 1777266488 | 1.11° C | 82% | 1020.8 hPa | - | - | 335 W/m² | - |
| 1777265550 | 0.56° C | 84% | 1020.8 hPa | - | - | 335 W/m² | - |
| 1777264925 | 0° C | 85% | 1020.9 hPa | - | - | 335 W/m² | - |
| 1777264612 | -0.56° C | 85% | 1020.9 hPa | - | - | 335 W/m² | - |
| 1777263987 | -0.56° C | 85% | 1020.8 hPa | - | - | 335 W/m² | - |
| 1777263363 | -0.56° C | 85% | 1020.7 hPa | - | - | 335 W/m² | - |
| 1777262112 | -1.11° C | 87% | 1020.6 hPa | - | - | 335 W/m² | - |
| 1777261487 | -1.11° C | 84% | 1020.5 hPa | - | - | 335 W/m² | - |
| 1777260861 | -1.11° C | 84% | 1020.6 hPa | - | - | 335 W/m² | - |
* Rain since midnight (hover to see other rain measurements)
** Current wind speed in m/s (hover to see current wind gust speed)